DW5679 Weather Reports


time (UTC)temp
C
wind
direction
speed
KPH
gust
KPH
rain 1hr
cm
rain 24hr
cm
rain mn
cm
humidity
%
barometer
mb
20260510071533 18 27 0.0 0.0 0.00 0.00 0.00 94 1013.1
20260510071518 18 58 0.0 0.0 0.00 0.00 0.00 93 1013.0
20260510070024 18 28 0.0 0.0 0.00 0.00 0.00 93 1013.3
20260510070020 18 58 0.0 0.0 0.00 0.00 0.00 93 1013.1
20260510064535 18 57 0.0 0.0 0.00 0.00 0.00 92 1013.3
20260510064522 18 28 0.0 0.0 0.00 0.00 0.00 93 1013.3
20260510063020 19 28 0.0 0.0 0.00 0.00 0.00 92 1013.3
20260510063013 19 58 0.0 0.0 0.00 0.00 0.00 91 1013.1
20260510061519 19 27 0.0 0.0 0.00 0.00 0.00 91 1013.3
20260510061508 19 57 0.0 0.0 0.00 0.00 0.00 91 1013.3
20260510060033 19 28 0.0 0.0 0.00 0.00 0.00 92 1013.6
20260510060019 20 58 0.0 0.0 0.00 0.00 0.00 91 1013.5
20260510054523 19 27 0.0 0.0 0.00 0.00 0.00 90 1013.3
20260510053036 20 58 0.0 0.0 0.00 0.00 0.00 89 1013.3
20260510053013 20 28 0.0 0.0 0.00 0.00 0.00 90 1013.4
20260510051516 20 76 0.0 0.0 0.00 0.00 0.00 90 1013.0
20260510051514 20 43 0.0 0.0 0.00 0.00 0.00 90 1013.1
20260510050017 20 81 0.0 0.0 0.00 0.00 0.00 87 1012.8
20260510050008 20 51 0.0 0.0 0.00 0.00 0.00 88 1012.9
20260510044523 20 81 0.0 0.0 0.00 0.00 0.00 87 1012.7
20260510044508 20 51 0.0 0.0 0.00 0.00 0.00 87 1012.8
20260510043022 20 81 0.0 0.0 0.00 0.00 0.00 86 1012.6
20260510043010 20 51 0.0 0.0 0.00 0.00 0.00 86 1012.7
20260510041524 20 81 0.0 0.0 0.00 0.00 0.00 84 1012.5
20260510041505 20 51 0.0 0.0 0.00 0.00 0.00 85 1012.7
20260510040023 21 81 0.0 0.0 0.00 0.00 0.00 83 1012.4
20260510040004 21 51 0.0 0.0 0.00 0.00 0.00 84 1012.5
20260510034518 21 81 0.0 0.0 0.00 0.00 0.00 81 1012.3
20260510034507 21 51 0.0 0.0 0.00 0.00 0.00 82 1012.4
20260510033019 21 81 0.0 0.0 0.00 0.00 0.00 80 1012.4
20260510033002 21 51 0.0 0.0 0.00 0.00 0.00 81 1012.5
20260510031530 21 80 0.0 0.0 0.00 0.00 0.00 80 1012.3
20260510031503 21 50 0.0 0.0 0.00 0.00 0.00 80 1012.5
20260510030023 21 80 0.0 0.0 0.00 0.00 0.00 79 1012.1
20260510030003 21 50 0.0 0.0 0.00 0.00 0.00 79 1012.2
20260510024525 22 80 0.0 0.0 0.00 0.00 0.00 78 1011.8
20260510024501 22 50 0.0 0.0 0.00 0.00 0.00 78 1011.9
20260510023100 22 50 0.0 0.0 0.00 0.00 0.00 77 1011.8
20260510023026 22 80 0.0 0.0 0.00 0.00 0.00 76 1011.6
20260510021608 22 50 0.0 0.0 0.00 0.00 0.00 75 1011.5
20260510021529 22 80 0.0 0.0 0.00 0.00 0.00 75 1011.4
20260510020058 22 51 0.0 0.0 0.00 0.00 0.00 76 1011.3
20260510020028 22 81 0.0 0.0 0.00 0.00 0.00 75 1011.2
20260510014600 23 50 0.0 0.0 0.00 0.00 0.00 74 1011.2
20260510014525 23 80 0.0 0.0 0.00 0.00 0.00 74 1011.1
20260510013059 23 50 0.0 0.0 0.00 0.00 0.00 73 1011.1
20260510013027 23 80 0.0 0.0 0.00 0.00 0.00 73 1011.0
20260510011557 23 53 0.0 0.0 0.00 0.00 0.00 73 1010.9
20260510011526 23 83 0.0 0.0 0.00 0.00 0.00 73 1010.8
20260510010100 24 53 0.0 0.0 0.00 0.00 0.00 71 1010.8
20260510010027 24 83 0.0 0.0 0.00 0.00 0.00 70 1010.6
20260510004557 25 53 0.0 1.6 0.00 0.00 0.00 69 1010.6
20260510004527 25 83 0.0 1.6 0.00 0.00 0.00 68 1010.5
20260510003059 26 53 0.0 0.0 0.00 0.00 0.00 63 1010.5
20260510003022 26 83 0.0 0.0 0.00 0.00 0.00 63 1010.3
20260510001554 28 52 0.0 0.0 0.00 0.00 0.00 59 1010.2
20260510001526 28 81 0.0 0.0 0.00 0.00 0.00 59 1010.1
20260510000054 28 43 0.0 1.6 0.00 0.00 0.00 54 1010.0
20260510000028 28 73 0.0 1.6 0.00 0.00 0.00 54 1010.0
20260509234555 28 358 0.0 1.6 0.00 0.00 0.00 54 1009.8
20260509234528 28 27 0.0 1.6 0.00 0.00 0.00 54 1009.9
20260509233052 27 12 0.0 1.6 0.00 0.00 0.00 54 1009.8
20260509233025 27 41 0.0 1.6 0.00 0.00 0.00 54 1009.8
20260509231552 27 41 0.0 0.0 0.00 0.00 0.00 57 1009.7
20260509231503 27 71 0.0 0.0 0.00 0.00 0.00 56 1009.7
20260509230057 28 41 0.0 1.6 0.00 0.00 0.00 55 1009.7
20260509230005 28 71 0.0 1.6 0.00 0.00 0.00 54 1009.7
20260509224555 28 41 0.0 1.6 0.00 0.00 0.00 52 1009.6
20260509224503 28 66 0.0 1.6 0.00 0.00 0.00 50 1009.6
20260509223052 28 36 0.0 0.0 0.00 0.00 0.00 54 1009.6
20260509223016 28 66 0.0 0.0 0.00 0.00 0.00 52 1009.5
20260509221549 28 41 0.0 0.0 0.00 0.00 0.00 52 1009.5
20260509221517 28 77 0.0 0.0 0.00 0.00 0.00 52 1009.4
20260509220049 28 25 0.0 0.0 0.00 0.00 0.00 50 1009.5
20260509220011 28 55 0.0 1.6 0.00 0.00 0.00 50 1009.4
20260509214549 29 36 0.0 1.6 0.00 0.00 0.00 48 1009.4
20260509214508 29 66 0.0 0.0 0.00 0.00 0.00 46 1009.4
20260509213102 30 37 0.0 0.0 0.00 0.00 0.00 51 1009.4
20260509213005 30 62 0.0 0.0 0.00 0.00 0.00 50 1009.4
20260509211546 30 46 0.0 1.6 0.00 0.00 0.00 48 1009.5
20260509211523 30 92 0.0 1.6 0.00 0.00 0.00 47 1009.5
20260509210100 30 12 0.0 1.6 0.00 0.00 0.00 49 1009.5
20260509210018 30 42 0.0 1.6 0.00 0.00 0.00 49 1009.5
20260509204544 30 51 0.0 1.6 0.00 0.00 0.00 49 1009.7
20260509204518 30 78 0.0 1.6 0.00 0.00 0.00 49 1009.7
20260509203042 29 27 0.0 1.6 0.00 0.00 0.00 49 1009.7
20260509203024 29 57 0.0 1.6 0.00 0.00 0.00 49 1009.7
20260509201538 28 21 0.0 1.6 0.00 0.00 0.00 52 1010.0
20260509201512 28 52 0.0 6.4 0.00 0.00 0.00 50 1010.0
20260509200038 28 60 0.0 11.3 0.00 0.00 0.00 49 1010.5
20260509200005 28 95 0.0 11.3 0.00 0.00 0.00 49 1010.3
20260509194536 29 349 0.0 1.6 0.00 0.00 0.00 48 1010.6
20260509194530 29 43 0.0 1.6 0.00 0.00 0.00 48 1010.4
20260509193040 28 42 0.0 3.2 0.00 0.00 0.00 52 1010.6
20260509193023 28 71 0.0 3.2 0.00 0.00 0.00 51 1010.5
20260509191539 27 15 0.0 1.6 0.00 0.00 0.00 53 1010.7
20260509191518 27 46 0.0 1.6 0.00 0.00 0.00 49 1010.6
20260509190032 28 17 0.0 1.6 0.00 0.00 0.00 52 1010.7
20260509190013 28 47 0.0 1.6 0.00 0.00 0.00 52 1010.7
20260509184533 28 30 0.0 1.6 0.00 0.00 0.00 55 1010.7
20260509184514 28 76 0.0 0.0 0.00 0.00 0.00 55 1010.6
20260509183030 27 32 0.0 3.2 0.00 0.00 0.00 55 1011.0
20260509183009 27 62 0.0 3.2 0.00 0.00 0.00 55 1010.9
20260509181527 26 32 0.0 0.0 0.00 0.00 0.00 59 1011.0
20260509181523 26 2 0.0 0.0 0.00 0.00 0.00 59 1011.2
20260509180021 25 282 0.0 1.6 0.00 0.00 0.00 59 1011.0
20260509180018 26 252 0.0 1.6 0.00 0.00 0.00 59 1011.2
20260509174537 25 65 0.0 3.2 0.00 0.00 0.00 59 1011.2
20260509174518 25 35 0.0 3.2 0.00 0.00 0.00 60 1011.4
20260509173019 25 12 0.0 1.6 0.00 0.00 0.00 59 1011.4
20260509171514 25 36 0.0 6.4 0.00 0.00 0.00 58 1011.5
20260509171512 25 66 0.0 6.4 0.00 0.00 0.00 58 1011.2
20260509170014 25 54 0.0 3.2 0.00 0.00 0.00 63 1011.6
20260509170012 25 89 0.0 3.2 0.00 0.00 0.00 63 1011.3
20260509164528 23 28 1.6 11.3 0.00 0.00 0.00 67 1011.2
20260509164508 23 358 1.6 11.3 0.00 0.00 0.00 67 1011.6
20260509163036 23 20 0.0 1.6 0.00 0.00 0.00 69 1011.1
20260509163005 23 351 0.0 1.6 0.00 0.00 0.00 70 1011.5
20260509161529 23 17 0.0 8.0 0.00 0.00 0.00 70 1011.2
20260509161503 23 347 0.0 4.8 0.00 0.00 0.00 70 1011.5
20260509160019 22 7 1.6 11.3 0.00 0.00 0.00 72 1011.2
20260509154610 22 334 0.0 9.7 0.00 0.00 0.00 74 1011.5
20260509154515 22 13 0.0 9.7 0.00 0.00 0.00 74 1011.2
20260509153102 21 32 0.0 3.2 0.00 0.00 0.00 75 1011.5
20260509153042 21 62 0.0 3.2 0.00 0.00 0.00 74 1011.2
20260509151552 21 13 0.0 1.6 0.00 0.00 0.00 79 1011.6
20260509151528 21 43 0.0 1.6 0.00 0.00 0.00 78 1011.3
20260509150048 20 13 0.0 0.0 0.00 0.00 0.00 81 1011.7
20260509150036 20 43 0.0 0.0 0.00 0.00 0.00 80 1011.3
20260509144542 19 13 0.0 0.0 0.00 0.00 0.00 82 1011.8
20260509144522 19 43 0.0 0.0 0.00 0.00 0.00 82 1011.4
20260509143039 18 13 0.0 1.6 0.00 0.00 0.00 85 1011.9
20260509143025 18 43 0.0 1.6 0.00 0.00 0.00 84 1011.5
20260509141535 18 13 0.0 0.0 0.00 0.00 0.00 87 1012.1
20260509141521 18 43 0.0 0.0 0.00 0.00 0.00 87 1011.6
20260509140039 17 13 0.0 0.0 0.00 0.00 0.00 88 1012.2
20260509140033 17 43 0.0 0.0 0.00 0.00 0.00 88 1011.7
20260509134529 17 29 0.0 0.0 0.00 0.00 0.00 90 1011.8
20260509133028 16 359 0.0 0.0 0.00 0.00 0.00 93 1012.3
20260509133025 16 29 0.0 0.0 0.00 0.00 0.00 93 1011.9
20260509131533 16 16 0.0 1.6 0.00 0.00 0.00 94 1012.1
20260509131525 16 45 0.0 1.6 0.00 0.00 0.00 94 1011.7
20260509130026 15 29 0.0 0.0 0.00 0.00 0.00 96 1012.1
20260509130024 15 60 0.0 0.0 0.00 0.00 0.00 96 1011.7
20260509124523 15 60 0.0 0.0 0.00 0.00 0.00 96 1011.5
20260509123025 14 60 0.0 0.0 0.00 0.00 0.00 96 1011.3
20260509123023 14 29 0.0 0.0 0.00 0.00 0.00 96 1011.7
20260509121527 14 59 0.0 0.0 0.00 0.00 0.00 95 1011.2
20260509121521 14 29 0.0 0.0 0.00 0.00 0.00 96 1011.4
20260509120031 13 59 0.0 0.0 0.00 0.00 0.00 95 1010.9
20260509120024 13 30 0.0 0.0 0.00 0.00 0.00 96 1011.2
20260509114528 13 60 0.0 0.0 0.00 0.00 0.00 95 1010.8
20260509114519 13 29 0.0 0.0 0.00 0.00 0.00 96 1011.3
20260509113026 13 59 0.0 0.0 0.00 0.00 0.00 94 1010.8
20260509113018 13 29 0.0 0.0 0.00 0.00 0.00 95 1011.1
20260509111522 14 59 0.0 0.0 0.00 0.00 0.00 94 1010.4
20260509111516 14 30 0.0 0.0 0.00 0.00 0.00 95 1010.7
20260509110020 14 59 0.0 0.0 0.00 0.00 0.00 95 1010.2
20260509110014 14 29 0.0 0.0 0.00 0.00 0.00 95 1010.5
20260509104518 14 59 0.0 0.0 0.00 0.00 0.00 94 1009.7
20260509104513 14 30 0.0 0.0 0.00 0.00 0.00 95 1010.0
20260509103012 14 59 0.0 0.0 0.00 0.00 0.00 95 1009.5
20260509101510 14 29 0.0 0.0 0.00 0.00 0.00 94 1009.7
20260509100029 15 59 0.0 0.0 0.00 0.00 0.00 93 1009.5
20260509100009 15 30 0.0 0.0 0.00 0.00 0.00 94 1009.8
20260509094527 15 59 0.0 0.0 0.00 0.00 0.00 93 1009.5
20260509094510 15 29 0.0 0.0 0.00 0.00 0.00 93 1009.8
20260509093020 15 60 0.0 0.0 0.00 0.00 0.00 92 1009.5
20260509093005 15 30 0.0 0.0 0.00 0.00 0.00 92 1009.8
20260509091520 15 50 0.0 0.0 0.00 0.00 0.00 90 1009.6
20260509091503 15 20 0.0 0.0 0.00 0.00 0.00 90 1009.9
20260509090016 16 45 0.0 0.0 0.00 0.00 0.00 89 1009.6
20260509090003 16 15 0.0 0.0 0.00 0.00 0.00 90 1010.0
20260509084512 16 45 0.0 3.2 0.00 0.00 0.00 89 1009.6
20260509084502 16 15 0.0 3.2 0.00 0.00 0.00 90 1010.0
20260509083031 16 40 0.0 6.4 0.00 0.00 0.00 89 1009.6
20260509083001 16 10 0.0 6.4 0.00 0.00 0.00 90 1009.9
20260509081600 15 13 0.0 3.2 0.00 0.00 0.00 91 1009.9
20260509081508 15 17 0.0 3.2 0.00 0.00 0.00 91 1009.5
20260509080107 16 16 0.0 0.0 0.00 0.00 0.00 88 1010.1
20260509080006 16 45 0.0 1.6 0.00 0.00 0.00 88 1009.8
20260509074559 16 26 0.0 1.6 0.00 0.00 0.00 87 1010.2
20260509074505 16 19 0.0 1.6 0.00 0.00 0.00 86 1010.0
20260509073134 16 349 0.0 3.2 0.00 0.00 0.00 88 1010.4
20260509073018 16 19 0.0 3.2 0.00 0.00 0.00 87 1010.1